CAPE
0 0 0 0 0 0 0 0 0 0 0 0 0 0 0 0 0 0 0 0 0 0 0 0 0 0 0 0 0 0 708 1226 1923 2183 2115 1735 1527 1241 1168 1049 848 660 869 697
0 0 0 0 0 0 0 0 0 0 0 0 0 0 0 0 0 0 0 0 0 0 0 0 0 0 0 0 0 0 1 1111 1722 2110 2060 1650 1512 914 627 507 484 442 604 616
0 0 0 0 0 0 0 0 0 0 0 0 0 0 0 0 0 0 0 0 0 0 0 0 0 0 0 0 0 19 120 317 1480 1998 1806 1330 967 772 490 563 459 330 260 424
0 0 0 0 0 0 0 0 0 0 0 0 0 0 0 0 0 0 0 0 0 0 0 0 0 0 0 0 0 99 167 325 1166 1716 1326 1110 855 904 749 532 311 292 139 83
0 0 0 0 0 0 0 0 0 0 0 0 0 0 0 0 0 0 0 0 0 0 0 0 0 0 0 0 0 19 283 421 1103 1345 1012 899 953 839 511 474 238 188 202 89
0 0 0 3 3 7 0 0 0 0 0 0 0 0 0 0 0 0 0 0 0 0 1 1 0 0 0 130 147 382 573 555 1156 1150 1024 942 1098 957 644 634 519 290 97 167
0 0 0 25 0 0 3 11 0 0 0 0 0 0 0 0 0 0 2 101 109 59 25 21 45 140 55 574 845 976 840 762 1247 1258 1053 1089 1201 1304 861 526 448 414 208 191
4 0 0 0 0 6 1 15 1 6 1 0 0 0 0 0 0 0 185 232 172 153 223 363 503 487 484 776 824 275 99 427 1141 1221 1104 1181 814 1190 776 563 369 326 124 107
1 0 0 0 0 0 62 9 1 16 0 2 0 0 0 0 0 0 403 212 178 405 479 586 574 410 239 179 86 18 0 78 404 581 768 932 905 745 541 365 243 208 187 214
0 0 0 0 0 9 46 87 51 17 0 0 0 0 0 0 0 1 370 232 462 699 527 398 195 47 2 0 0 1 2 34 113 119 423 629 511 432 246 100 97 85 159 16
3 2 0 0 0 0 0 33 71 14 2 0 0 0 0 3 0 158 262 365 260 461 332 75 5 0 0 0 0 5 2 4 17 8 115 378 267 190 114 54 116 36 15 2
3 1 0 0 0 0 0 0 23 29 1 0 0 0 0 30 21 132 201 331 493 405 114 1 2 2 0 0 0 0 1 4 11 0 10 226 187 83 17 26 141 60 1 1
0 0 0 0 0 0 0 0 0 42 69 6 3 0 0 1 171 30 236 488 297 58 10 0 0 1 0 1 1 0 0 0 1 2 0 3 0 0 10 22 120 25 0 0
1 1 4 2 1 0 0 0 0 68 24 8 5 0 0 70 11 33 98 29 11 10 5 0 0 0 0 1 1 1 1 0 0 0 1 0 0 0 0 33 16 0 1 0
10 2 6 7 1 0 0 1 21 43 78 7 10 14 1 72 85 76 109 117 75 43 26 0 0 0 0 0 1 1 1 0 0 0 0 0 2 1 0 14 33 2 0 0
0 1 6 0 0 0 0 0 0 1 5 0 32 45 89 37 0 2 7 153 7 0 0 1 0 0 0 0 0 1 1 2 0 0 0 1 0 17 19 23 33 10 3 0
1 10 7 0 0 0 0 0 0 0 41 192 120 36 2 63 8 0 0 5 2 0 0 0 0 0 0 0 0 0 2 1 2 0 0 0 0 0 0 23 33 21 9 2
7 17 10 0 0 2 0 0 0 0 1 5 1 37 45 3 1 6 2 2 2 0 0 0 0 0 0 0 0 0 0 3 2 5 0 0 0 0 0 0 2 29 16 9
5 39 2 3 0 0 0 0 0 0 0 1 4 2 13 1 0 0 0 0 0 0 0 0 0 0 0 0 0 0 0 1 4 6 5 4 0 0 3 1 0 0 35 20
16 23 2 3 1 2 4 0 3 0 0 1 4 2 1 5 0 0 0 0 0 0 0 0 0 0 0 0 0 0 0 0 2 3 6 6 6 0 0 5 3 2 0 21
0 2 1 0 5 5 4 0 0 0 2 5 1 3 1 0 3 0 0 0 0 0 0 0 0 0 0 0 0 0 0 0 0 0 2 3 7 5 2 4 5 2 1 0
4 0 1 0 4 1 1 0 0 1 3 5 2 5 6 5 2 0 0 0 0 0 0 0 0 0 0 0 0 0 0 0 0 0 1 1 2 3 3 1 4 2 3 2
12 16 9 0 2 1 2 1 2 4 3 1 2 7 4 0 0 0 0 0 0 0 0 0 0 0 0 0 0 0 0 0 0 1 2 2 2 2 1 1 0 3 2 6
0 3 5 0 1 1 2 2 2 3 2 1 1 2 0 0 0 0 0 0 0 0 0 0 0 0 0 0 0 0 0 0 0 1 1 2 5 4 2 2 2 2 3 2
5 0 0 1 0 0 0 1 1 1 1 2 1 2 0 0 0 0 0 1 1 0 0 0 0 0 0 0 1 2 0 0 0 1 1 1 2 3 3 4 2 3 1 2
3 0 0 0 0 1 3 0 2 0 0 1 1 0 1 1 0 1 3 2 1 1 1 0 0 0 0 0 2 1 0 0 0 0 1 1 2 2 1 1 2 3 2 2
CIN
0 0 0 0 0 0 0 0 0 0 0 0 0 0 0 0 0 0 0 0 0 0 0 0 0 0 0 0 0 0 -57 -75 -60 -48 -39 -57 -75 -139 -113 -159 -191 -194 -118 -82
0 0 0 0 0 0 0 0 0 0 0 0 0 0 0 0 0 0 0 0 0 0 0 0 0 0 0 0 0 0 -62 -57 -66 -64 -48 -55 -51 -185 -206 -213 -228 -239 -158 -121
0 0 0 0 0 0 0 0 0 0 0 0 0 0 0 0 0 0 0 0 0 0 0 0 0 0 0 0 0 -196 -159 -89 -61 -49 -49 -108 -129 -162 -212 -202 -239 -273 -231 -177
0 0 0 0 0 0 0 0 0 0 0 0 0 0 0 0 0 0 0 0 0 0 0 0 0 0 0 0 0 -125 -143 -107 -53 -61 -138 -149 -171 -156 -208 -234 -263 -274 -295 -295
0 0 0 0 0 0 0 0 0 0 0 0 0 0 0 0 0 0 0 0 0 0 0 0 0 0 0 0 0 -193 -113 -117 -42 -143 -182 -140 -113 -163 -213 -197 -279 -256 -271 -311
0 0 0 -11 -17 -16 -2 -3 0 0 0 0 0 0 0 0 0 0 0 0 0 0 -8 -8 0 0 0 -36 -48 -61 -96 -72 -67 -179 -152 -126 -87 -127 -142 -151 -197 -252 -277 -232
0 0 0 -9 -15 0 -33 -38 0 -2 0 0 0 0 0 0 0 0 -1 -18 -30 -35 -22 -34 -14 -6 -26 -38 -60 -91 -111 -62 -42 -104 -126 -80 -67 -36 -82 -164 -157 -201 -228 -225
-4 0 0 0 0 -30 0 -30 -8 -6 -3 0 0 0 0 0 0 0 -4 -19 -42 -22 -4 -11 -13 -11 -25 -16 -70 -197 -247 -126 -15 -64 -72 -50 -73 -29 -55 -110 -152 -181 -229 -216
-1 0 0 0 0 0 -25 -23 -14 -7 -4 -14 0 0 0 0 0 0 -14 -6 -11 -2 -10 -13 -29 -54 -111 -123 -140 -217 0 -243 -131 -97 -73 -46 -48 -54 -84 -115 -149 -177 -176 -177
-2 0 0 0 0 -16 -18 -12 -7 -24 -1 0 0 0 0 0 0 -2 -16 -16 -7 -6 -14 -38 -92 -172 -89 0 -1 -4 -5 -256 -206 -195 -98 -65 -83 -85 -130 -188 -196 -209 -173 -246
-1 -4 0 0 0 0 0 -27 -5 -16 -11 0 0 0 0 -2 0 -8 -18 -19 -67 -22 -40 -79 -51 0 0 -4 -1 -2 -4 -3 -285 -308 -158 -72 -98 -119 -145 -225 -189 -242 -252 -1
-2 -2 0 0 0 0 0 0 -46 -18 -3 0 0 0 0 -15 -3 -4 -2 -3 -7 -13 -85 -4 -1 0 0 0 0 0 0 0 0 -8 -268 -88 -76 -138 -193 -233 -166 -214 -8 0
0 0 0 0 0 0 0 0 0 -48 -20 -43 -11 0 0 -15 -77 -16 -17 -31 -13 -40 -65 0 0 0 0 0 0 0 0 0 0 -6 -15 -236 0 0 -195 -224 -145 -216 0 0
-1 -2 -2 -2 -3 -3 0 0 0 -41 -38 -9 -21 0 0 -9 -61 -26 -132 -146 -9 -1 -112 -1 0 0 0 0 0 0 0 0 0 0 0 0 0 0 -2 -151 -203 -8 -5 0
-6 -3 -2 -2 -2 0 -6 -2 -8 -46 -5 -50 -51 -11 -26 -76 -117 -13 -83 -98 -15 -75 -242 0 -1 0 0 0 0 0 0 0 0 0 0 0 -1 -4 -4 -29 -141 -8 0 0
0 -3 -2 0 0 0 0 0 -4 -25 -30 0 -54 -11 -11 -12 0 -1 -1 -21 -17 0 0 -1 0 0 0 0 0 0 0 0 0 0 0 0 0 -4 -3 -7 -111 -5 -14 0
-2 -3 -3 0 0 0 0 0 0 0 -12 -2 -11 -15 -142 -28 -35 0 0 0 -33 0 0 0 0 0 0 0 0 0 0 0 0 0 0 0 0 0 0 -9 -68 -92 -2 -31
-7 -4 -2 -1 0 -1 0 0 0 -7 0 0 0 -30 -5 0 0 0 0 0 -1 0 0 0 0 0 0 0 0 0 0 0 0 0 0 0 0 0 0 0 -7 -3 -51 -18
-9 -13 -4 -1 0 0 0 0 0 0 -2 0 0 0 -20 0 0 0 0 0 0 0 0 0 0 0 0 0 0 0 0 0 0 0 0 0 0 0 0 0 0 -1 -56 -4
-19 -6 -9 -22 -5 -2 -1 0 -11 -1 -1 -1 0 0 0 0 0 0 0 -1 0 0 0 0 0 0 0 0 0 0 0 0 0 0 0 0 0 0 0 0 0 0 0 -28
0 -11 -4 -4 -5 -13 0 0 0 0 0 0 0 0 0 0 0 0 0 -1 0 0 0 0 0 0 0 0 0 0 0 0 0 0 0 0 0 0 0 0 0 0 0 0
-2 -1 -2 0 -4 -3 0 0 0 0 0 0 0 0 0 0 0 0 0 0 0 0 0 0 0 0 0 0 0 0 0 0 0 0 0 0 0 0 0 0 0 0 0 0
-7 0 0 0 -1 0 0 0 0 0 0 0 0 0 0 0 -1 0 0 0 0 0 0 0 0 0 0 0 0 0 0 0 0 0 0 0 0 0 0 0 0 0 0 0
0 -2 -2 0 -1 0 0 0 0 0 0 0 0 0 0 0 0 0 0 0 0 0 0 0 0 0 0 0 0 -1 -1 0 0 0 0 0 0 0 0 0 0 0 0 0
-5 0 0 -1 0 0 0 0 0 0 0 0 0 0 0 0 0 0 0 0 0 0 0 0 0 0 0 0 0 -1 -1 0 0 0 0 0 0 0 0 0 0 0 0 0
-15 0 0 0 0 0 0 0 0 -1 0 0 0 0 0 0 0 0 0 0 0 0 0 0 0 0 0 0 0 0 0 0 0 0 0 0 0 0 0 0 0 0 0 0
Wind_Speed
29 30 32 37 36 39 40 43 51 54 48 47 52 48 49 43 38 42 42 32 36 36 30 22 21 19 20 18 16 13 11 12 11 11 10 10 10 9 8 6 4 3 2 1
34 32 39 42 45 46 48 50 60 58 44 46 49 54 52 47 43 42 41 41 36 36 33 24 20 19 20 19 17 15 15 13 13 12 12 11 10 10 9 7 6 5 3 2
38 42 45 45 50 50 52 51 58 57 52 39 42 53 55 54 54 47 49 48 46 37 30 32 31 29 25 23 18 15 17 16 14 13 12 12 12 10 9 9 7 5 5 3
37 38 48 48 50 49 61 53 55 51 51 54 36 57 49 48 49 50 50 47 49 46 39 28 27 27 27 24 19 18 19 18 15 13 13 13 14 14 11 9 8 6 5 5
44 46 49 48 52 53 56 53 49 49 55 47 47 47 52 43 47 46 47 44 40 39 36 33 31 29 22 20 18 17 17 16 15 14 15 14 16 13 11 10 10 8 6 5
43 45 40 45 44 43 49 53 52 50 47 56 47 43 48 41 45 40 32 26 27 20 18 20 22 22 24 22 17 15 16 17 14 15 15 14 15 13 12 10 8 7 6 6
49 37 43 26 48 50 46 46 50 53 52 53 47 46 47 32 38 45 30 10 11 12 15 14 17 17 20 15 15 17 20 22 15 15 15 15 16 14 11 9 9 8 8 7
44 47 38 47 50 43 47 40 43 47 47 50 48 49 53 28 43 35 11 6 9 10 11 11 12 14 15 14 16 20 23 24 16 15 16 17 15 15 12 9 10 11 9 8
40 29 44 21 27 30 33 29 35 46 48 45 41 34 46 40 27 28 6 6 9 6 6 7 11 13 16 18 20 19 21 22 21 19 21 21 14 13 14 14 15 12 9 9
31 27 27 33 36 10 18 29 31 37 46 48 44 44 38 23 28 14 9 10 8 7 8 10 12 14 17 18 20 21 21 21 19 21 21 22 16 15 14 14 13 13 10 10
32 22 32 27 29 12 19 14 7 33 41 43 41 38 32 17 14 11 10 8 11 6 6 11 12 14 17 19 21 21 21 21 20 20 23 22 18 17 15 14 14 12 12 12
26 30 29 33 12 17 21 27 26 31 38 41 40 43 35 27 25 8 8 8 6 2 3 8 11 14 17 20 21 21 22 21 20 20 21 18 18 15 16 15 14 11 12 10
31 27 32 31 20 24 26 26 30 31 36 35 41 43 33 26 13 14 11 6 4 6 1 6 11 14 17 19 20 21 21 21 20 19 18 17 18 16 17 16 14 11 12 12
28 29 32 33 31 28 23 27 23 29 30 33 35 39 34 22 21 25 6 5 15 9 1 8 11 14 16 18 20 20 20 20 20 20 21 20 20 21 19 16 14 13 13 13
30 33 33 33 33 28 25 22 20 23 31 29 34 32 27 27 21 15 11 6 12 4 7 9 11 13 16 18 19 20 20 19 19 19 19 22 22 22 19 18 12 11 12 13
32 25 32 32 31 27 28 17 14 20 31 30 33 32 24 24 22 22 22 20 12 5 6 10 12 14 16 18 19 20 20 20 19 19 21 23 24 25 19 18 14 11 11 12
34 26 29 28 27 28 17 19 15 13 21 25 30 27 24 22 17 20 16 14 3 4 6 12 13 15 17 18 19 21 22 21 21 20 20 22 23 22 23 20 13 11 11 13
31 28 26 28 26 19 19 25 20 15 16 20 21 25 15 13 13 13 11 14 13 11 10 13 15 16 18 19 21 20 22 22 22 22 22 23 23 23 25 26 24 14 13 15
25 25 24 22 24 25 21 26 25 22 21 29 23 24 18 9 10 15 14 13 13 15 15 16 17 18 20 21 22 22 23 23 24 24 24 23 23 24 25 26 27 22 18 16
24 26 27 26 23 21 24 29 29 21 17 31 25 24 22 5 17 17 15 13 15 16 17 18 19 21 22 24 23 23 23 24 25 25 26 25 24 23 25 27 28 26 22 22
24 23 24 26 25 19 25 29 23 13 21 28 27 20 19 13 10 11 12 14 16 17 18 19 21 23 24 25 24 23 24 25 25 25 25 25 26 26 24 27 26 25 22 15
23 24 21 21 22 22 28 24 17 22 24 25 26 16 16 11 10 11 14 15 16 18 19 20 21 22 24 24 24 24 25 25 25 24 25 25 25 24 23 23 22 22 20 17
20 21 24 21 22 21 24 23 24 24 22 24 18 19 17 12 13 14 14 16 17 18 19 19 20 22 23 24 24 24 25 25 24 23 24 24 24 23 22 22 21 23 18 16
25 22 22 25 24 24 24 25 25 24 23 21 22 18 17 16 15 15 16 16 17 17 18 19 20 21 22 23 24 24 25 23 23 22 22 22 22 21 20 17 18 15 14 14
23 24 25 26 25 25 26 27 26 24 23 22 19 19 19 16 16 17 17 17 18 19 20 21 20 20 22 23 24 25 25 23 22 21 21 20 19 19 19 20 19 17 17 14
21 21 23 25 26 27 27 28 28 24 23 22 20 18 18 17 17 16 16 17 18 19 19 18 19 21 22 23 24 25 24 22 21 20 20 20 19 18 18 17 15 17 15 11
Wind_Direction
324 315 309 304 297 293 293 289 283 276 279 275 270 277 269 273 270 267 269 273 268 271 274 269 269 260 263 267 256 249 247 242 237 237 240 246 240 238 265 270 278 285 305 281
320 310 309 305 300 293 289 286 275 275 282 277 274 269 270 273 270 269 268 269 265 266 269 270 267 268 268 264 259 254 260 251 242 240 247 255 247 256 257 264 268 278 278 281
317 315 312 306 297 293 286 284 278 276 278 283 279 269 264 267 269 268 266 267 266 267 263 264 269 271 269 265 261 259 266 266 244 245 255 261 256 260 246 235 245 245 261 289
322 324 315 308 299 295 284 283 281 281 275 268 277 266 268 267 267 263 262 263 261 262 263 264 264 265 267 264 256 260 267 265 249 238 244 241 249 253 258 254 266 264 259 268
321 321 319 309 302 293 284 280 282 277 270 276 266 269 263 268 264 265 264 261 260 259 260 263 264 266 273 272 259 259 263 261 250 238 243 243 254 249 264 260 254 254 271 260
323 325 319 313 310 303 291 278 273 275 270 262 260 263 264 265 261 266 274 267 262 262 257 265 273 275 275 282 266 257 261 265 243 240 247 241 240 249 257 246 245 250 269 276
329 330 330 329 314 300 290 278 264 262 256 256 258 260 257 275 262 259 280 265 271 270 270 276 276 278 277 277 278 278 275 272 249 244 247 246 246 251 247 243 259 272 283 284
335 329 334 312 298 304 286 273 258 257 256 256 257 258 253 272 253 259 285 278 261 264 269 283 293 294 291 294 287 284 281 271 270 253 254 257 247 254 265 264 273 283 287 290
338 326 298 277 277 270 303 274 265 257 259 261 259 265 260 262 270 263 234 234 259 282 282 288 298 300 297 293 291 294 287 274 270 266 265 258 253 256 265 277 283 293 295 304
343 324 285 295 301 287 245 273 266 254 249 252 256 255 260 260 262 256 216 240 262 265 298 300 304 305 306 303 298 295 289 282 274 268 259 261 262 261 273 277 283 288 297 307
343 347 279 289 314 256 250 296 243 264 249 250 251 253 257 288 245 211 214 220 255 158 275 292 308 315 314 310 305 300 294 285 278 271 261 263 262 266 271 278 283 287 301 308
346 278 273 284 257 271 283 321 267 261 245 250 250 247 245 291 266 202 209 202 216 237 275 309 319 322 319 316 312 308 298 290 282 277 272 261 265 261 270 277 283 290 301 308
317 291 286 291 267 286 289 283 290 270 252 248 244 241 256 268 276 250 186 208 299 166 292 317 326 328 326 320 317 313 308 300 291 280 276 266 266 269 273 277 284 293 300 308
301 299 280 275 270 272 274 278 255 226 258 253 247 244 254 272 264 259 244 241 267 115 251 311 327 332 333 330 325 321 316 308 297 287 278 272 270 269 273 277 281 291 296 302
293 277 275 275 273 268 266 279 237 203 229 256 244 250 264 269 285 254 253 224 246 347 344 331 328 332 333 335 333 331 326 318 306 295 287 279 274 271 274 277 278 287 296 296
273 260 277 274 276 276 277 257 246 187 237 258 242 256 289 278 277 264 266 250 217 261 306 332 347 340 334 334 334 331 332 326 316 303 292 286 281 271 272 275 274 282 294 293
265 262 276 269 283 281 240 287 300 266 225 263 253 265 281 271 275 272 310 306 86 313 345 337 340 337 333 335 333 331 332 328 321 312 304 294 286 280 278 276 273 277 287 286
247 254 261 266 275 257 294 300 300 295 348 331 288 284 269 286 293 302 298 343 357 358 339 325 329 335 335 336 332 336 334 331 327 314 308 301 294 284 278 272 275 275 278 276
265 254 268 249 272 274 312 316 302 285 299 330 299 280 267 286 300 308 326 332 345 336 348 338 329 335 335 332 332 327 326 326 326 322 307 302 302 289 279 274 270 282 276 273
273 264 264 257 264 270 314 317 309 268 273 328 309 285 272 305 270 286 307 323 334 343 352 347 341 336 335 330 330 330 325 322 321 320 315 302 301 301 286 274 270 273 276 268
269 268 265 262 266 283 312 319 300 292 278 312 313 300 296 308 286 301 332 343 349 352 342 340 336 334 335 331 326 328 328 320 322 323 319 313 303 295 294 283 275 273 273 268
275 269 271 281 270 262 315 309 308 287 297 312 324 323 345 338 321 348 337 340 339 337 332 331 334 336 339 337 332 329 324 327 327 327 325 324 317 309 301 284 283 274 270 263
272 288 279 285 275 297 315 305 301 298 292 316 312 337 1 325 338 348 337 340 332 329 325 324 331 336 336 337 334 334 327 328 332 332 331 335 333 329 300 310 290 281 271 263
294 300 286 285 290 301 315 315 313 307 302 300 324 326 340 352 336 340 339 333 332 327 324 323 333 337 331 331 334 332 328 330 333 337 337 339 338 332 330 321 289 290 292 288
296 294 294 286 297 297 308 315 311 309 312 310 308 321 331 332 339 347 340 332 331 338 339 339 334 329 332 335 336 340 336 337 338 337 339 342 340 341 342 350 332 305 292 299
294 291 294 288 308 306 301 314 324 308 308 313 308 308 318 331 333 327 332 330 334 336 331 327 327 331 336 340 341 342 340 342 343 342 341 341 340 341 349 354 356 5 6 354